RH
69 54 58 60 60 57 65 84 26 46 52 56 77 60 50 73 75 64 96 98 100 81 98 95 97 80 98 94 93 75 54 46 33 20 18 12 11 10 10 12 13 19 33 41
72 63 54 63 68 61 70 82 33 53 58 58 70 54 66 82 86 100 84 93 100 99 95 93 97 98 97 96 98 82 57 48 42 32 20 17 13 12 10 11 13 17 25 29
76 71 56 63 67 66 72 73 42 34 79 71 50 74 93 94 100 98 90 92 96 93 90 84 93 97 96 99 97 97 65 53 50 43 32 21 18 14 12 10 12 14 16 24
83 76 68 62 63 61 67 67 77 30 74 71 57 98 100 85 71 77 100 93 87 94 90 91 90 95 90 97 97 97 96 63 57 54 49 41 26 19 14 14 12 11 12 14
85 83 77 62 59 64 61 66 73 58 38 97 66 64 76 64 60 74 73 95 89 94 97 90 86 92 95 97 97 98 97 98 76 56 56 56 50 31 21 17 14 14 12 13
92 86 72 66 61 67 64 66 67 82 34 65 78 52 52 43 34 34 48 63 70 68 97 84 82 82 95 94 96 96 96 96 91 85 73 71 71 62 42 25 19 16 16 14
93 87 73 66 68 64 73 71 65 76 71 33 40 56 47 42 32 29 32 43 42 44 42 58 91 94 97 83 90 88 92 96 97 92 97 90 80 69 69 54 32 21 18 18
87 88 79 64 60 51 59 57 57 68 76 76 32 31 33 37 34 29 28 29 33 28 31 33 37 63 92 80 49 84 50 56 94 97 96 96 96 88 79 79 68 44 27 23
90 97 88 66 64 56 59 57 59 64 67 76 76 54 26 20 24 26 26 26 24 24 23 19 22 28 36 59 60 57 60 41 41 54 86 94 93 97 98 94 89 86 91 69
89 96 87 69 67 61 54 61 61 55 56 60 72 75 67 64 55 26 18 21 23 22 20 20 19 18 16 18 22 20 23 38 22 31 20 33 45 76 93 93 93 90 98 96
81 84 93 80 69 67 58 59 56 51 48 57 53 49 44 50 64 69 60 46 28 17 16 19 20 20 16 16 17 14 16 16 14 13 14 18 14 19 32 40 42 39 77 96
76 74 76 70 65 67 71 53 57 57 53 53 50 49 43 52 52 48 46 56 55 53 53 45 36 22 13 12 15 18 18 18 18 16 14 12 11 14 12 13 16 22 17 25
62 62 61 72 66 65 70 64 58 55 54 56 53 46 40 41 44 46 48 46 45 46 46 53 64 66 65 68 64 48 26 15 13 18 18 18 18 16 13 13 15 20 46 50
52 55 52 61 64 66 66 57 65 63 57 57 57 52 41 39 37 36 34 31 33 35 37 42 45 46 53 57 58 61 59 52 56 53 30 17 16 18 18 17 18 17 17 17
52 53 57 63 65 64 76 77 76 78 73 69 64 61 53 54 48 41 40 41 40 34 28 30 31 34 43 43 40 40 41 48 57 53 54 62 63 49 27 15 15 17 17 17
38 42 42 59 55 57 62 64 66 70 72 69 60 53 56 60 60 60 53 44 44 44 37 33 30 32 32 30 35 39 41 48 51 52 57 61 57 60 66 67 54 35 20 12
46 43 43 54 53 52 49 55 53 50 48 47 45 44 42 40 38 35 34 32 31 30 30 29 27 26 25 26 29 30 30 28 29 38 50 53 56 67 70 68 68 73 70 62
48 44 40 40 42 36 40 40 40 42 40 42 43 41 40 39 38 34 32 30 30 28 26 24 24 24 23 23 24 24 25 26 27 27 27 29 29 39 51 65 70 73 77 79
58 56 53 47 45 40 39 44 45 41 36 39 35 36 36 36 38 39 37 33 28 27 26 25 23 23 24 24 22 22 25 26 25 25 24 24 27 32 40 45 54 69 77 72
73 76 71 65 62 55 52 52 53 51 41 43 40 38 37 34 31 39 39 37 35 32 28 28 28 27 25 23 22 21 20 21 25 26 27 26 26 24 22 21 22 36 58 62
73 77 77 78 73 67 66 62 57 52 48 48 44 39 36 36 34 31 34 35 30 26 24 24 23 22 21 20 19 19 18 18 18 18 19 20 20 21 24 23 20 19 19 32
75 78 75 73 72 67 66 68 70 64 60 58 55 48 45 41 38 33 28 23 19 16 13 11 10 10 10 10 10 10 10 11 12 12 13 14 14 12 13 17 19 18 19 19
81 80 81 80 75 72 70 70 74 75 71 62 52 43 36 29 22 16 11 8 8 8 7 7 7 7 7 7 7 7 7 7 7 7 8 8 8 8 7 7 8 12 13 14
84 78 77 86 79 77 76 72 67 61 50 38 27 17 12 9 8 8 8 8 9 8 8 8 7 6 6 6 7 6 5 5 4 5 6 6 6 7 7 7 6 6 6 7
86 82 86 84 79 69 62 54 40 24 14 11 10 9 10 10 11 11 12 13 17 20 24 28 27 26 20 14 10 10 10 11 8 6 6 6 6 6 6 6 6 6 6 6
85 81 80 75 65 40 20 13 10 9 10 10 12 14 15 17 22 30 40 46 55 64 49 36 32 40 46 45 32 24 17 13 14 13 24 35 33 18 10 6 5 5 5 5
Wind_Speed
35 35 37 38 39 38 36 34 28 23 18 13 2 6 12 10 5 20 35 39 32 51 62 41 40 61 55 57 58 54 56 49 47 48 48 48 48 48 47 47 46 44 42 40
33 33 35 35 35 37 33 32 27 25 21 14 3 8 14 7 9 6 26 40 40 38 49 59 50 43 45 55 49 62 62 56 51 49 50 51 51 51 52 51 49 46 44 43
33 33 35 35 32 29 31 30 29 24 21 19 10 19 17 10 10 5 15 34 36 37 42 53 50 41 37 51 41 44 64 56 53 51 50 51 52 52 50 48 48 47 47 48
34 33 32 32 29 29 30 29 28 23 17 18 13 19 13 6 5 9 5 9 32 38 35 37 52 56 22 30 39 37 51 57 58 54 50 49 49 51 51 51 52 53 52 51
35 30 27 29 28 29 28 27 26 22 16 15 12 12 7 1 5 7 3 3 19 23 23 28 30 45 46 27 34 34 29 55 55 57 50 48 48 50 52 53 53 53 53 54
33 32 27 25 26 26 26 25 21 20 16 10 11 7 10 5 5 6 5 5 6 17 11 16 25 39 43 30 26 30 31 40 61 58 52 49 48 48 51 53 55 56 56 57
24 31 28 22 20 20 18 16 18 18 18 15 10 8 3 4 4 4 5 9 9 8 10 10 16 16 29 19 14 19 27 14 40 57 52 51 51 51 52 54 55 56 57 59
27 30 29 25 24 21 21 21 22 19 17 17 13 10 4 2 5 5 4 4 7 9 11 12 9 21 16 13 15 17 14 16 17 23 38 36 58 58 58 56 58 59 59 59
31 26 31 27 24 17 17 15 16 15 15 13 14 12 7 3 1 4 6 9 11 14 16 18 20 18 25 28 28 29 27 27 24 23 30 29 33 42 68 71 67 65 65 62
29 22 25 25 23 19 18 14 11 11 12 13 11 10 10 10 10 5 5 9 13 15 18 21 23 27 30 35 32 30 32 40 37 31 31 33 31 34 42 36 31 44 61 65
27 22 20 27 20 19 16 14 10 8 10 10 10 9 11 11 8 4 6 10 13 16 18 22 25 25 30 34 34 38 35 34 36 36 37 39 41 38 41 44 44 43 45 44
26 21 17 18 19 19 20 11 9 8 9 13 15 13 17 14 7 6 7 10 15 18 19 20 21 22 26 31 33 34 35 37 38 40 43 44 46 47 47 48 46 47 48 49
25 24 18 17 18 18 21 16 10 10 13 17 17 18 20 19 16 15 14 16 17 20 22 23 25 28 29 30 29 28 29 32 38 43 45 47 50 51 55 55 55 55 55 54
26 23 24 22 20 11 16 21 14 11 10 12 21 25 24 24 24 26 25 24 23 25 27 30 31 32 33 34 33 33 33 35 35 36 38 43 50 54 54 54 55 55 56 57
25 23 21 21 22 19 17 21 23 25 24 19 20 23 28 30 30 30 32 36 37 35 34 33 35 36 38 40 40 40 40 40 40 40 42 42 43 43 47 52 59 60 57 56
27 26 26 18 27 26 20 23 24 25 27 29 34 36 36 37 39 39 42 43 44 45 46 44 42 40 42 43 44 45 46 47 47 48 48 47 45 46 47 49 49 50 52 58
26 29 30 25 27 29 29 28 30 31 33 35 37 39 40 42 44 45 44 46 47 49 50 51 52 50 47 48 49 50 51 51 51 52 54 55 54 53 52 52 53 53 54 54
28 30 36 38 38 39 39 37 37 38 39 39 40 41 43 46 49 50 52 51 52 52 53 55 57 59 60 58 55 54 54 53 55 57 57 58 59 59 59 58 59 57 57 57
29 34 39 40 42 45 44 44 43 44 47 48 50 52 53 53 52 55 55 56 57 56 58 59 60 62 63 65 65 64 60 60 59 59 60 59 59 60 60 61 62 62 62 60
36 38 41 41 43 45 47 48 49 52 54 54 56 56 57 58 60 62 63 64 65 66 66 66 66 67 68 69 69 68 69 68 66 64 63 63 64 66 65 62 62 62 63 64
43 45 46 46 50 52 52 55 58 60 58 61 60 62 64 67 68 66 66 67 70 72 74 74 73 71 71 72 75 76 77 76 75 74 72 70 69 69 69 68 67 66 64 63
49 50 51 53 55 58 60 63 64 64 63 64 67 67 68 70 72 74 75 75 76 74 73 73 74 77 78 79 79 78 80 83 85 84 81 80 78 76 73 72 71 70 69 67
51 53 56 58 61 64 66 67 67 68 69 70 71 72 72 74 75 77 77 77 77 78 79 81 82 82 83 85 87 87 87 87 89 91 90 90 87 85 84 80 74 72 71 71
55 58 61 65 66 69 69 70 72 73 73 74 74 75 75 76 76 76 77 78 78 79 79 79 80 82 82 82 84 86 88 89 89 89 92 94 94 92 90 88 84 78 74 70
61 63 66 68 69 71 72 73 75 76 76 77 77 77 75 74 75 75 74 72 71 70 64 59 57 58 62 65 66 63 62 63 68 72 75 79 84 89 89 89 90 88 81 74
65 67 68 70 71 72 73 74 76 76 76 76 73 72 71 68 65 62 58 50 41 37 38 39 41 39 42 46 49 48 49 51 51 53 51 50 55 59 64 68 74 80 80 77
Wind_Direction
345 350 351 355 355 356 356 356 357 357 348 333 282 195 182 202 169 203 198 201 204 214 207 212 203 218 219 211 212 219 218 219 220 221 222 223 224 226 228 230 232 234 235 237
343 347 350 356 359 355 356 359 4 11 12 6 10 142 154 167 120 180 206 208 214 220 224 226 207 212 222 214 198 214 218 216 217 220 222 224 225 227 229 231 233 235 238 241
345 348 348 353 358 358 0 5 10 18 29 27 71 118 127 140 159 144 218 218 221 224 229 230 228 211 227 211 210 205 216 217 217 219 222 226 228 230 233 236 238 239 240 242
344 346 347 347 352 2 3 11 9 20 36 38 84 122 134 115 122 195 135 215 227 231 240 239 234 226 237 243 210 214 216 214 218 219 223 226 229 231 232 234 236 238 240 244
337 338 340 340 354 4 7 12 8 22 43 58 70 137 143 149 159 159 135 190 232 236 246 251 245 239 228 254 225 227 232 220 221 224 223 227 233 234 235 237 238 241 242 244
332 336 336 345 352 -0 9 12 13 22 44 65 84 111 156 146 98 89 119 153 202 237 288 285 253 253 255 254 229 222 237 230 224 227 225 227 231 236 239 239 239 240 242 244
336 332 334 345 347 356 10 12 27 34 48 60 75 84 119 126 138 131 135 150 170 217 264 287 275 244 227 266 264 255 261 221 212 225 225 229 233 235 239 242 243 243 243 246
345 332 334 340 345 347 2 15 18 36 37 52 71 82 68 215 151 171 175 180 194 219 248 253 263 264 241 262 286 286 293 306 263 248 239 230 233 240 238 239 244 245 245 246
341 344 329 337 340 343 351 1 23 26 42 50 67 76 75 114 180 194 220 220 217 219 222 232 249 248 269 264 278 272 281 287 284 279 256 245 234 250 241 241 239 245 246 245
338 350 324 333 333 339 337 356 4 17 35 50 50 46 41 41 43 21 289 265 255 243 244 243 240 239 245 253 259 257 259 268 273 263 269 265 267 268 261 259 260 264 258 254
338 347 334 330 333 331 334 328 341 8 18 22 30 29 26 34 37 22 328 309 299 287 276 271 270 263 253 248 245 250 248 246 249 249 254 256 259 254 260 263 265 263 261 256
339 340 342 328 329 328 319 313 319 344 1 5 344 349 2 6 355 343 318 298 292 287 287 283 277 271 264 261 262 255 250 248 246 246 244 240 241 244 251 255 250 250 255 256
343 338 345 328 327 330 315 314 316 319 333 339 330 328 328 330 320 307 296 285 278 283 284 281 277 278 277 278 275 267 261 255 250 248 247 248 250 248 247 246 244 245 244 245
339 337 343 339 336 336 298 301 311 295 292 307 305 318 319 314 312 309 302 295 287 280 278 279 279 275 273 274 274 273 274 272 266 261 256 254 251 249 250 253 254 251 250 249
339 342 344 334 329 337 323 317 316 314 311 303 290 297 297 301 302 296 295 295 295 290 285 280 278 276 274 270 269 270 271 272 271 268 265 261 259 258 257 256 254 253 254 252
330 329 326 321 315 319 316 304 302 298 297 299 303 305 299 293 294 291 293 293 291 289 288 285 280 276 275 276 274 275 276 275 273 273 273 271 267 265 264 262 261 261 260 258
315 313 313 312 304 302 301 299 299 300 299 299 299 296 296 296 294 292 291 289 289 289 288 286 285 282 277 275 272 271 272 271 270 271 271 271 269 268 267 265 262 260 261 263
302 303 309 309 307 306 306 306 303 301 299 296 294 293 291 290 289 288 287 286 284 284 283 282 281 281 280 278 273 272 271 269 267 265 264 266 268 266 264 265 265 265 264 262
296 299 300 301 302 301 302 301 301 300 296 296 296 293 295 296 293 289 287 285 284 282 281 279 278 278 277 278 277 274 274 273 270 269 269 267 264 263 264 264 262 263 264 264
297 299 298 300 299 299 299 299 298 294 292 294 291 292 293 292 292 291 291 291 289 288 286 284 284 283 282 281 280 278 277 276 274 271 269 267 266 268 267 264 262 261 260 261
297 296 295 296 295 296 298 299 298 296 296 293 293 293 292 291 289 286 283 283 283 284 285 285 284 283 281 280 280 280 279 277 274 271 270 270 268 265 264 263 264 265 263 260
293 294 295 295 297 298 298 299 297 294 292 291 291 289 287 286 286 286 286 286 286 284 282 280 279 279 277 277 275 274 273 275 275 274 272 269 267 266 263 262 260 258 259 261
294 295 296 296 295 296 295 294 294 293 292 291 290 289 288 286 286 286 287 286 285 284 283 283 282 281 280 278 277 273 271 269 269 271 270 269 267 266 267 266 262 258 255 255
294 295 295 294 294 294 294 294 293 292 291 290 289 289 289 288 289 289 288 288 288 288 288 287 286 283 281 279 277 277 274 271 267 263 262 264 265 264 264 264 263 261 257 253
295 296 294 294 294 293 294 293 293 293 292 291 290 289 289 289 288 287 287 286 286 287 289 289 290 291 290 289 288 285 280 277 276 274 273 271 268 264 263 262 261 261 259 257
297 296 295 294 294 294 294 293 293 292 291 290 290 290 289 287 287 288 289 290 288 286 289 293 293 299 306 301 297 295 289 285 283 273 272 275 275 273 268 263 262 261 260 259